QPF
0.00 0.00 0.00 0.00 0.00 0.00 0.00 0.00 0.00 0.00 0.00 0.00 0.00 0.01 0.01 0.03 0.06 0.01 0.00 0.00 0.00 0.00 0.00 0.00 0.00 0.00 0.00 0.00 0.00 0.00 0.00 0.00 0.00 0.00 0.00 0.00 0.00 0.00 0.00 0.00 0.00 0.00 0.00 0.00 0.00 0.00 0.00 0.00 0.00 0.00 0.00 0.00 0.00 0.00
0.00 0.00 0.00 0.00 0.00 0.00 0.00 0.00 0.00 0.00 0.00 0.00 0.00 0.01 0.01 0.02 0.05 0.03 0.00 0.00 0.00 0.00 0.00 0.00 0.00 0.00 0.00 0.00 0.00 0.00 0.00 0.00 0.00 0.00 0.00 0.00 0.00 0.00 0.00 0.00 0.00 0.00 0.00 0.00 0.00 0.00 0.00 0.00 0.00 0.00 0.00 0.00 0.00 0.00
0.00 0.00 0.00 0.00 0.00 0.00 0.00 0.00 0.00 0.00 0.00 0.00 0.00 0.01 0.02 0.03 0.03 0.03 0.00 0.00 0.00 0.00 0.00 0.00 0.00 0.00 0.00 0.00 0.00 0.00 0.00 0.00 0.00 0.00 0.00 0.00 0.00 0.00 0.00 0.00 0.00 0.00 0.00 0.00 0.00 0.00 0.00 0.00 0.00 0.00 0.00 0.00 0.00 0.00
0.00 0.00 0.00 0.00 0.00 0.00 0.00 0.00 0.00 0.00 0.00 0.00 0.00 0.01 0.02 0.03 0.01 0.02 0.00 0.00 0.00 0.00 0.00 0.00 0.00 0.00 0.00 0.00 0.00 0.00 0.00 0.00 0.00 0.00 0.00 0.00 0.00 0.00 0.00 0.00 0.00 0.00 0.00 0.00 0.00 0.00 0.00 0.00 0.00 0.00 0.00 0.00 0.00 0.00
0.00 0.00 0.00 0.00 0.00 0.00 0.00 0.00 0.00 0.00 0.00 0.00 0.00 0.00 0.01 0.01 0.00 0.00 0.00 0.00 0.00 0.00 0.00 0.00 0.00 0.00 0.00 0.00 0.00 0.00 0.00 0.00 0.00 0.00 0.00 0.00 0.00 0.00 0.00 0.00 0.00 0.00 0.00 0.00 0.00 0.00 0.00 0.00 0.00 0.00 0.00 0.00 0.00 0.00
0.00 0.00 0.00 0.00 0.00 0.00 0.00 0.00 0.00 0.00 0.00 0.00 0.00 0.00 0.00 0.00 0.00 0.00 0.00 0.00 0.00 0.00 0.00 0.00 0.00 0.00 0.00 0.00 0.00 0.00 0.00 0.00 0.00 0.00 0.00 0.00 0.00 0.00 0.00 0.00 0.00 0.00 0.00 0.00 0.00 0.00 0.00 0.00 0.00 0.00 0.00 0.00 0.00 0.00
0.00 0.00 0.00 0.00 0.00 0.00 0.00 0.00 0.00 0.00 0.00 0.00 0.00 0.00 0.00 0.00 0.00 0.00 0.00 0.00 0.00 0.00 0.00 0.00 0.00 0.00 0.00 0.00 0.00 0.00 0.00 0.00 0.00 0.00 0.00 0.00 0.00 0.00 0.00 0.00 0.00 0.00 0.00 0.00 0.00 0.00 0.00 0.00 0.00 0.00 0.00 0.00 0.00 0.00
0.00 0.00 0.00 0.00 0.00 0.00 0.00 0.00 0.00 0.00 0.00 0.00 0.00 0.00 0.00 0.00 0.00 0.00 0.00 0.00 0.00 0.00 0.00 0.00 0.00 0.00 0.00 0.00 0.00 0.00 0.00 0.00 0.00 0.00 0.00 0.00 0.00 0.00 0.00 0.00 0.00 0.00 0.00 0.00 0.00 0.00 0.00 0.00 0.00 0.00 0.00 0.00 0.00 0.00
0.00 0.00 0.00 0.00 0.00 0.00 0.00 0.00 0.00 0.00 0.00 0.00 0.00 0.00 0.00 0.00 0.00 0.01 0.01 0.00 0.00 0.00 0.00 0.00 0.00 0.00 0.00 0.00 0.00 0.00 0.00 0.00 0.00 0.00 0.00 0.00 0.00 0.00 0.00 0.00 0.00 0.00 0.00 0.00 0.00 0.00 0.00 0.00 0.00 0.00 0.00 0.00 0.00 0.00
0.00 0.00 0.00 0.00 0.00 0.00 0.00 0.00 0.00 0.00 0.00 0.00 0.00 0.00 0.00 0.00 0.01 0.00 0.00 0.00 0.00 0.00 0.00 0.00 0.00 0.00 0.00 0.00 0.00 0.00 0.01 0.01 0.00 0.00 0.00 0.00 0.00 0.00 0.00 0.00 0.00 0.00 0.00 0.00 0.00 0.00 0.00 0.00 0.00 0.00 0.00 0.00 0.00 0.00
0.00 0.00 0.00 0.00 0.00 0.00 0.00 0.00 0.00 0.00 0.00 0.00 0.00 0.00 0.00 0.01 0.00 0.00 0.00 0.00 0.00 0.00 0.00 0.00 0.00 0.00 0.00 0.00 0.00 0.00 0.00 0.00 0.00 0.00 0.00 0.00 0.00 0.00 0.00 0.00 0.00 0.00 0.00 0.00 0.00 0.00 0.00 0.00 0.00 0.00 0.00 0.00 0.00 0.00
0.00 0.00 0.00 0.00 0.00 0.00 0.00 0.00 0.00 0.00 0.00 0.00 0.00 0.00 0.00 0.00 0.00 0.00 0.00 0.00 0.00 0.00 0.00 0.00 0.00 0.00 0.00 0.00 0.00 0.00 0.00 0.00 0.00 0.00 0.00 0.00 0.00 0.00 0.00 0.00 0.00 0.00 0.00 0.00 0.00 0.00 0.00 0.00 0.00 0.00 0.00 0.00 0.00 0.00
0.00 0.00 0.00 0.00 0.00 0.00 0.00 0.00 0.00 0.00 0.00 0.00 0.00 0.00 0.00 0.00 0.00 0.00 0.00 0.00 0.00 0.00 0.00 0.00 0.00 0.00 0.00 0.00 0.00 0.00 0.00 0.00 0.00 0.00 0.00 0.00 0.00 0.00 0.00 0.00 0.00 0.00 0.00 0.00 0.00 0.00 0.00 0.00 0.00 0.00 0.00 0.00 0.00 0.00
0.00 0.00 0.00 0.00 0.00 0.00 0.00 0.00 0.00 0.00 0.00 0.00 0.00 0.00 0.00 0.00 0.00 0.00 0.00 0.00 0.00 0.00 0.00 0.00 0.00 0.00 0.00 0.00 0.00 0.00 0.00 0.00 0.00 0.00 0.00 0.00 0.00 0.00 0.01 0.01 0.01 0.00 0.00 0.00 0.00 0.00 0.00 0.00 0.00 0.00 0.00 0.00 0.00 0.00
0.00 0.00 0.00 0.00 0.00 0.00 0.00 0.00 0.00 0.00 0.00 0.00 0.00 0.00 0.00 0.00 0.00 0.00 0.00 0.00 0.00 0.00 0.00 0.00 0.00 0.00 0.00 0.00 0.00 0.00 0.00 0.00 0.00 0.00 0.00 0.00 0.00 0.00 0.00 0.01 0.01 0.00 0.00 0.00 0.00 0.00 0.00 0.00 0.00 0.00 0.00 0.00 0.00 0.00
0.00 0.00 0.00 0.00 0.00 0.00 0.00 0.00 0.00 0.00 0.00 0.00 0.00 0.00 0.00 0.00 0.00 0.00 0.00 0.00 0.00 0.00 0.00 0.00 0.00 0.00 0.00 0.00 0.01 0.01 0.00 0.02 0.02 0.01 0.00 0.00 0.00 0.00 0.00 0.00 0.00 0.00 0.00 0.00 0.00 0.00 0.00 0.00 0.00 0.00 0.00 0.00 0.00 0.00
0.00 0.00 0.00 0.00 0.00 0.00 0.00 0.00 0.00 0.00 0.00 0.00 0.00 0.00 0.00 0.00 0.00 0.00 0.00 0.00 0.00 0.00 0.00 0.00 0.00 0.01 0.01 0.01 0.03 0.04 0.04 0.06 0.01 0.00 0.00 0.00 0.00 0.00 0.00 0.00 0.00 0.00 0.00 0.00 0.01 0.00 0.00 0.00 0.00 0.00 0.00 0.00 0.00 0.00
0.00 0.00 0.00 0.00 0.00 0.00 0.00 0.00 0.00 0.00 0.00 0.00 0.00 0.00 0.00 0.00 0.00 0.00 0.00 0.00 0.00 0.00 0.00 0.00 0.00 0.00 0.00 0.00 0.01 0.01 0.01 0.01 0.00 0.00 0.00 0.00 0.00 0.00 0.00 0.00 0.00 0.00 0.00 0.00 0.00 0.01 0.01 0.01 0.01 0.01 0.02 0.01 0.00 0.00
0.00 0.00 0.00 0.00 0.00 0.00 0.00 0.00 0.00 0.01 0.00 0.00 0.00 0.00 0.00 0.00 0.00 0.00 0.00 0.00 0.00 0.00 0.00 0.00 0.00 0.00 0.00 0.00 0.00 0.00 0.00 0.00 0.00 0.00 0.00 0.00 0.00 0.00 0.00 0.00 0.00 0.00 0.00 0.00 0.00 0.00 0.01 0.03 0.05 0.06 0.06 0.06 0.06 0.03
0.00 0.00 0.00 0.00 0.00 0.00 0.00 0.01 0.00 0.00 0.01 0.00 0.00 0.00 0.00 0.00 0.00 0.00 0.00 0.00 0.00 0.00 0.00 0.00 0.00 0.00 0.00 0.00 0.00 0.00 0.00 0.00 0.00 0.00 0.00 0.00 0.00 0.00 0.00 0.00 0.00 0.00 0.00 0.00 0.00 0.00 0.01 0.02 0.02 0.04 0.08 0.10 0.08 0.07
0.00 0.00 0.00 0.00 0.00 0.00 0.00 0.00 0.00 0.00 0.00 0.00 0.00 0.00 0.00 0.00 0.00 0.00 0.00 0.00 0.00 0.00 0.00 0.00 0.00 0.00 0.00 0.00 0.00 0.00 0.00 0.00 0.00 0.00 0.00 0.00 0.00 0.00 0.00 0.00 0.00 0.00 0.00 0.00 0.00 0.00 0.00 0.00 0.01 0.01 0.01 0.01 0.02 0.03
0.00 0.00 0.00 0.00 0.00 0.01 0.00 0.00 0.00 0.00 0.00 0.00 0.00 0.00 0.00 0.01 0.00 0.00 0.00 0.00 0.00 0.00 0.00 0.00 0.00 0.00 0.00 0.00 0.00 0.00 0.00 0.00 0.00 0.00 0.00 0.00 0.00 0.00 0.00 0.00 0.00 0.00 0.00 0.00 0.00 0.00 0.00 0.00 0.00 0.01 0.00 0.00 0.00 0.00
0.00 0.00 0.00 0.00 0.00 0.01 0.01 0.00 0.00 0.00 0.00 0.00 0.00 0.00 0.00 0.01 0.01 0.00 0.00 0.00 0.00 0.00 0.00 0.00 0.00 0.00 0.00 0.00 0.00 0.00 0.00 0.00 0.00 0.00 0.00 0.00 0.00 0.00 0.00 0.00 0.00 0.00 0.00 0.00 0.00 0.00 0.00 0.00 0.00 0.00 0.00 0.00 0.00 0.00
0.00 0.00 0.00 0.00 0.00 0.00 0.00 0.00 0.00 0.00 0.00 0.00 0.02 0.01 0.00 0.00 0.00 0.00 0.00 0.00 0.00 0.00 0.00 0.00 0.00 0.00 0.00 0.00 0.00 0.00 0.00 0.00 0.00 0.00 0.00 0.00 0.00 0.00 0.00 0.00 0.00 0.00 0.00 0.00 0.00 0.00 0.00 0.00 0.00 0.00 0.00 0.00 0.00 0.00
0.00 0.00 0.00 0.00 0.00 0.00 0.00 0.00 0.00 0.00 0.00 0.00 0.01 0.00 0.00 0.00 0.00 0.00 0.00 0.00 0.00 0.00 0.00 0.00 0.00 0.00 0.00 0.00 0.00 0.00 0.00 0.00 0.00 0.00 0.00 0.00 0.00 0.00 0.00 0.00 0.00 0.00 0.00 0.00 0.00 0.00 0.00 0.00 0.00 0.00 0.00 0.00 0.00 0.00
0.00 0.00 0.00 0.00 0.00 0.00 0.00 0.00 0.00 0.00 0.00 0.00 0.00 0.00 0.00 0.00 0.00 0.00 0.00 0.00 0.00 0.00 0.00 0.00 0.00 0.00 0.00 0.00 0.00 0.00 0.00 0.00 0.00 0.00 0.00 0.00 0.00 0.00 0.00 0.00 0.00 0.00 0.00 0.00 0.00 0.00 0.00 0.00 0.00 0.00 0.00 0.00 0.00 0.00
0.00 0.00 0.00 0.00 0.00 0.00 0.00 0.00 0.00 0.00 0.00 0.00 0.00 0.00 0.00 0.00 0.00 0.00 0.00 0.00 0.00 0.00 0.00 0.00 0.00 0.00 0.00 0.00 0.00 0.00 0.00 0.00 0.00 0.00 0.00 0.00 0.00 0.00 0.00 0.00 0.00 0.00 0.00 0.00 0.00 0.00 0.00 0.00 0.00 0.00 0.00 0.00 0.00 0.00
0.00 0.00 0.00 0.00 0.00 0.00 0.00 0.00 0.00 0.00 0.00 0.00 0.00 0.00 0.00 0.00 0.00 0.00 0.00 0.00 0.00 0.00 0.00 0.00 0.00 0.00 0.00 0.00 0.00 0.00 0.00 0.00 0.00 0.00 0.00 0.00 0.00 0.00 0.00 0.00 0.00 0.00 0.00 0.00 0.00 0.00 0.00 0.00 0.00 0.00 0.00 0.00 0.00 0.00
0.00 0.00 0.00 0.00 0.00 0.00 0.00 0.00 0.00 0.00 0.00 0.00 0.00 0.00 0.00 0.00 0.00 0.00 0.00 0.00 0.00 0.00 0.00 0.00 0.00 0.00 0.00 0.00 0.00 0.00 0.00 0.00 0.00 0.00 0.00 0.00 0.00 0.00 0.00 0.00 0.00 0.00 0.00 0.00 0.00 0.00 0.00 0.00 0.00 0.00 0.00 0.00 0.00 0.00
0.00 0.00 0.00 0.00 0.00 0.00 0.00 0.00 0.00 0.00 0.00 0.00 0.00 0.00 0.00 0.00 0.00 0.00 0.00 0.00 0.00 0.00 0.00 0.00 0.00 0.00 0.00 0.00 0.00 0.00 0.00 0.00 0.00 0.00 0.00 0.00 0.00 0.00 0.00 0.00 0.00 0.00 0.00 0.00 0.00 0.00 0.00 0.00 0.00 0.00 0.00 0.00 0.00 0.00
0.00 0.00 0.00 0.00 0.00 0.01 0.01 0.00 0.00 0.00 0.00 0.00 0.00 0.00 0.00 0.00 0.00 0.00 0.00 0.00 0.00 0.00 0.00 0.00 0.00 0.00 0.00 0.00 0.00 0.00 0.00 0.00 0.00 0.00 0.00 0.00 0.00 0.00 0.00 0.00 0.00 0.00 0.00 0.00 0.00 0.00 0.00 0.00 0.00 0.00 0.00 0.00 0.00 0.00
0.00 0.00 0.00 0.00 0.00 0.00 0.00 0.00 0.01 0.00 0.00 0.01 0.02 0.01 0.01 0.00 0.00 0.00 0.00 0.00 0.00 0.00 0.00 0.00 0.00 0.00 0.00 0.00 0.00 0.00 0.00 0.00 0.00 0.00 0.00 0.00 0.00 0.00 0.00 0.00 0.00 0.00 0.00 0.00 0.00 0.00 0.00 0.00 0.00 0.00 0.00 0.00 0.00 0.00
0.00 0.00 0.00 0.00 0.00 0.00 0.00 0.00 0.00 0.01 0.02 0.02 0.02 0.01 0.00 0.01 0.02 0.00 0.00 0.00 0.00 0.00 0.00 0.00 0.00 0.00 0.00 0.00 0.00 0.00 0.00 0.00 0.00 0.00 0.00 0.00 0.00 0.00 0.00 0.00 0.00 0.00 0.00 0.00 0.00 0.00 0.00 0.00 0.00 0.00 0.00 0.00 0.00 0.00
MSLP
1023.74 1023.18 1022.63 1022.05 1021.48 1020.96 1020.49 1020.10 1019.70 1019.33 1019.09 1018.87 1018.75 1018.57 1018.41 1018.30 1018.31 1018.62 1018.89 1019.07 1019.37 1019.02 1017.73 1017.26 1017.05 1016.73 1016.50 1016.33 1015.78 1014.72 1013.53 1012.61 1011.54 1010.46 1009.72 1009.01 1008.04 1007.48 1006.75 1006.49 1005.75 1004.72 1004.07 1003.30 1003.02 1002.57 1004.03 1004.44 1003.83 1004.04 1005.79 1005.39 1005.05 1004.56
1023.29 1022.72 1022.07 1021.53 1021.02 1020.53 1020.06 1019.60 1019.22 1018.89 1018.59 1018.32 1018.18 1018.00 1017.85 1017.77 1017.80 1017.96 1018.47 1018.81 1019.06 1019.20 1017.63 1017.20 1016.59 1016.24 1016.00 1015.90 1016.03 1015.27 1014.80 1014.22 1013.35 1012.19 1011.53 1010.40 1009.46 1008.77 1008.16 1006.96 1006.80 1006.29 1005.92 1004.94 1005.10 1005.22 1006.16 1006.06 1006.30 1006.75 1006.61 1006.04 1005.53 1004.91
1022.84 1022.27 1021.65 1021.14 1020.61 1020.12 1019.63 1019.18 1018.80 1018.46 1018.15 1017.91 1017.71 1017.51 1017.39 1017.29 1017.38 1017.56 1017.95 1018.65 1019.07 1018.90 1017.34 1016.37 1015.45 1015.47 1015.61 1015.43 1015.67 1015.61 1014.81 1014.74 1014.21 1014.17 1012.88 1011.88 1010.83 1010.33 1009.27 1008.63 1007.82 1007.17 1006.88 1005.91 1005.88 1006.56 1006.69 1006.85 1006.91 1007.02 1006.92 1006.49 1005.80 1005.02
1022.34 1021.85 1021.24 1020.71 1020.15 1019.66 1019.20 1018.81 1018.48 1018.13 1017.85 1017.58 1017.35 1017.17 1017.06 1017.02 1017.15 1017.28 1017.77 1018.15 1018.28 1018.59 1018.00 1015.68 1015.37 1015.07 1014.87 1014.93 1015.14 1015.13 1015.03 1015.28 1014.90 1014.19 1013.01 1012.25 1011.49 1011.29 1010.33 1009.84 1008.97 1007.82 1007.29 1006.77 1006.88 1006.97 1006.79 1007.02 1007.13 1007.13 1006.82 1006.44 1005.79 1005.07
1021.85 1021.35 1020.77 1020.22 1019.74 1019.35 1018.94 1018.51 1018.16 1017.83 1017.55 1017.28 1017.06 1016.94 1016.93 1016.89 1016.95 1017.08 1017.30 1017.71 1017.88 1018.21 1017.83 1016.22 1015.05 1014.84 1014.88 1014.77 1014.67 1014.91 1015.14 1015.27 1014.70 1013.64 1012.98 1012.25 1012.15 1011.75 1010.71 1010.15 1008.82 1008.05 1007.61 1007.17 1007.39 1007.95 1007.84 1007.45 1007.41 1007.13 1006.67 1006.17 1005.60 1004.99
1021.33 1020.87 1020.29 1019.81 1019.36 1018.94 1018.59 1018.28 1017.96 1017.67 1017.35 1017.10 1016.84 1016.74 1016.79 1016.78 1016.87 1016.95 1017.26 1017.61 1017.78 1017.89 1017.88 1016.64 1015.42 1014.85 1014.69 1014.68 1014.53 1014.77 1015.17 1015.24 1014.79 1013.85 1012.89 1012.62 1012.67 1012.17 1010.78 1009.60 1008.27 1008.07 1008.06 1007.71 1008.04 1008.28 1008.13 1007.73 1007.25 1006.90 1006.69 1006.20 1005.68 1005.13
1020.87 1020.39 1019.85 1019.29 1018.88 1018.51 1018.19 1017.91 1017.69 1017.48 1017.17 1016.97 1016.74 1016.62 1016.59 1016.72 1017.03 1017.39 1017.56 1017.24 1017.53 1017.97 1017.85 1017.01 1015.64 1014.93 1014.78 1014.70 1014.72 1014.81 1015.13 1014.85 1014.56 1013.72 1013.14 1012.54 1012.24 1012.29 1011.17 1009.38 1007.49 1007.80 1008.14 1008.08 1008.11 1008.16 1007.48 1007.29 1006.85 1006.67 1006.48 1005.95 1005.63 1005.12
1020.41 1019.91 1019.40 1018.86 1018.42 1018.14 1017.91 1017.65 1017.36 1017.14 1016.91 1016.79 1016.67 1016.71 1016.57 1016.79 1017.11 1017.25 1017.49 1017.53 1017.68 1017.93 1018.01 1017.53 1016.18 1015.44 1015.41 1015.03 1014.81 1014.87 1014.57 1014.62 1014.17 1013.52 1013.41 1012.67 1012.34 1011.91 1010.05 1007.81 1008.40 1008.49 1008.39 1008.27 1008.09 1007.84 1007.49 1007.15 1006.79 1006.33 1006.06 1005.68 1005.25 1004.84
1019.93 1019.39 1018.80 1018.37 1017.98 1017.62 1017.51 1017.25 1017.04 1016.87 1016.62 1016.56 1016.66 1016.82 1016.97 1017.08 1017.25 1017.36 1017.51 1017.74 1017.99 1018.51 1018.24 1017.86 1017.22 1016.41 1016.25 1015.81 1015.38 1015.13 1015.00 1014.46 1014.31 1013.56 1013.24 1012.97 1012.11 1010.95 1009.04 1008.59 1008.27 1008.39 1008.23 1007.88 1007.79 1007.53 1007.22 1007.01 1006.52 1005.97 1005.69 1005.40 1005.03 1004.83
1019.45 1018.84 1018.35 1017.80 1017.43 1017.13 1016.92 1016.73 1016.62 1016.52 1016.46 1016.49 1016.69 1016.70 1016.92 1017.33 1017.41 1017.54 1017.87 1017.98 1018.17 1018.62 1018.55 1018.12 1017.98 1017.48 1017.48 1016.67 1015.84 1015.51 1015.09 1014.97 1014.56 1014.67 1014.13 1013.02 1011.66 1010.52 1009.89 1009.20 1008.43 1008.13 1007.82 1007.59 1007.14 1006.71 1006.70 1006.53 1006.34 1005.84 1005.50 1005.37 1005.19 1005.06
1018.97 1018.41 1017.81 1017.31 1016.91 1016.61 1016.40 1016.28 1016.17 1016.25 1016.42 1016.52 1016.50 1016.77 1017.13 1017.26 1017.52 1017.52 1017.56 1017.76 1018.02 1018.24 1018.29 1018.02 1017.99 1017.77 1017.36 1016.81 1016.37 1016.14 1015.66 1015.32 1015.03 1014.88 1014.42 1013.63 1012.67 1011.53 1010.55 1009.81 1008.87 1007.93 1007.29 1006.85 1006.47 1006.17 1006.01 1005.94 1005.81 1005.49 1005.21 1004.96 1004.86 1004.86
1018.51 1017.90 1017.39 1016.84 1016.43 1016.19 1016.01 1015.99 1015.95 1016.02 1015.99 1016.22 1016.39 1016.77 1017.05 1017.14 1016.93 1016.90 1016.83 1017.26 1017.45 1017.58 1017.69 1017.79 1017.61 1017.45 1017.07 1016.89 1016.46 1015.89 1015.68 1015.54 1014.69 1015.08 1014.62 1013.64 1012.41 1011.40 1010.54 1009.34 1008.34 1007.35 1006.37 1005.45 1005.32 1005.09 1005.13 1005.21 1005.29 1005.22 1005.03 1004.55 1004.35 1004.43
1017.95 1017.43 1016.92 1016.38 1015.86 1015.63 1015.50 1015.53 1015.67 1015.81 1015.95 1016.06 1016.15 1016.06 1016.11 1015.89 1015.71 1016.12 1016.39 1016.23 1016.33 1016.72 1016.97 1017.05 1017.04 1017.01 1016.83 1016.65 1016.38 1016.06 1015.97 1015.77 1015.43 1014.87 1014.39 1013.77 1012.52 1011.27 1010.04 1008.73 1007.44 1006.45 1005.51 1004.73 1003.93 1004.22 1004.51 1004.73 1004.95 1005.01 1004.83 1004.63 1004.19 1003.82
1017.37 1016.87 1016.39 1015.86 1015.43 1015.12 1014.98 1015.09 1015.28 1015.71 1015.69 1015.12 1014.90 1015.31 1015.17 1015.35 1015.41 1015.32 1015.35 1015.27 1015.23 1015.54 1015.96 1016.35 1016.29 1016.38 1016.19 1016.32 1016.28 1016.08 1015.99 1016.00 1015.39 1014.91 1014.77 1014.01 1012.98 1011.92 1010.69 1009.35 1007.72 1006.38 1005.24 1004.13 1003.50 1003.53 1003.88 1004.22 1004.45 1004.69 1004.67 1004.58 1004.23 1003.63
1016.86 1016.25 1015.76 1015.41 1015.11 1014.65 1014.39 1014.59 1015.08 1015.17 1014.87 1014.50 1014.31 1014.94 1015.03 1015.17 1014.94 1014.60 1014.49 1014.47 1014.79 1015.11 1015.45 1015.53 1015.67 1015.77 1015.65 1015.71 1016.02 1015.83 1015.60 1015.45 1015.73 1015.71 1015.11 1014.38 1013.47 1012.41 1011.11 1010.00 1008.75 1007.29 1005.88 1004.93 1004.23 1003.85 1003.81 1003.89 1003.92 1004.00 1004.16 1004.25 1003.93 1003.55
1016.37 1015.77 1015.62 1015.46 1015.02 1014.52 1014.53 1014.89 1015.01 1014.80 1014.23 1014.06 1014.39 1014.79 1014.70 1014.63 1014.31 1013.96 1013.94 1014.00 1014.63 1014.81 1014.95 1014.99 1014.81 1014.64 1014.54 1014.71 1015.37 1015.64 1015.81 1015.79 1015.78 1015.19 1014.84 1014.30 1013.51 1012.54 1011.63 1010.63 1009.60 1008.41 1007.18 1006.11 1004.95 1004.15 1003.86 1003.72 1003.59 1003.49 1003.49 1003.52 1003.45 1003.26
1016.03 1015.57 1015.45 1015.34 1015.10 1014.89 1014.95 1014.78 1014.46 1014.12 1013.89 1014.14 1014.75 1015.13 1015.13 1015.12 1014.89 1014.56 1014.23 1014.07 1014.50 1014.30 1013.70 1013.90 1014.28 1014.73 1014.30 1014.85 1015.68 1015.96 1016.09 1016.22 1015.99 1015.40 1014.89 1014.51 1013.77 1012.91 1012.03 1011.10 1010.01 1009.19 1007.99 1007.11 1006.24 1005.09 1003.95 1003.31 1003.01 1002.83 1002.54 1002.40 1002.30 1002.12
1015.77 1015.10 1015.25 1015.27 1015.16 1015.00 1014.66 1014.52 1013.90 1013.79 1014.24 1014.81 1014.97 1015.61 1015.60 1015.65 1015.30 1014.85 1014.66 1014.19 1013.78 1013.69 1013.71 1014.42 1014.77 1015.42 1016.15 1016.65 1016.95 1017.17 1016.81 1016.29 1015.69 1015.48 1015.17 1014.57 1013.82 1013.04 1012.26 1011.37 1010.52 1009.74 1008.95 1007.99 1007.08 1006.09 1005.11 1003.99 1003.04 1002.55 1001.87 1001.66 1001.65 1001.66
1015.75 1015.28 1014.76 1015.02 1015.11 1014.93 1014.13 1014.17 1014.03 1014.30 1015.21 1015.45 1015.83 1015.99 1016.23 1016.24 1016.19 1015.90 1015.27 1014.78 1014.54 1014.42 1014.55 1015.61 1016.33 1017.11 1017.47 1017.56 1017.59 1017.31 1017.15 1016.84 1016.27 1015.71 1015.15 1014.61 1014.13 1013.53 1012.72 1011.80 1010.98 1010.30 1009.57 1008.91 1007.95 1006.87 1005.54 1004.94 1004.07 1003.22 1002.64 1002.40 1002.18 1002.18
1014.82 1014.57 1014.27 1014.39 1014.76 1014.40 1014.09 1014.41 1014.47 1014.59 1015.50 1016.41 1016.71 1017.14 1017.27 1017.38 1016.95 1016.30 1015.84 1015.60 1015.32 1015.36 1016.19 1017.11 1017.68 1017.97 1017.96 1017.88 1017.88 1017.69 1017.49 1017.25 1016.65 1015.86 1015.35 1014.87 1014.45 1013.76 1012.96 1012.28 1011.65 1010.94 1010.04 1009.33 1008.71 1007.90 1006.77 1005.61 1004.64 1003.71 1003.55 1003.12 1003.05 1002.63
1014.49 1014.39 1014.33 1014.40 1014.28 1014.02 1014.33 1014.78 1015.05 1015.61 1016.29 1016.81 1017.38 1017.61 1017.83 1017.62 1017.47 1017.29 1017.31 1017.03 1016.81 1017.47 1017.80 1018.09 1018.21 1018.27 1018.36 1018.25 1018.23 1017.95 1017.69 1017.39 1017.01 1016.80 1016.52 1015.63 1014.99 1014.22 1013.58 1012.94 1012.11 1011.33 1010.68 1010.02 1009.42 1008.69 1008.12 1007.35 1006.49 1005.13 1004.71 1004.69 1003.67 1003.39
1014.34 1014.17 1014.12 1014.18 1014.03 1014.19 1014.67 1015.37 1015.37 1015.98 1016.24 1016.95 1017.35 1017.63 1017.81 1017.98 1018.01 1017.95 1017.89 1017.87 1018.11 1018.43 1018.42 1018.48 1018.47 1018.44 1018.37 1018.41 1018.48 1018.33 1018.21 1017.85 1017.62 1017.11 1016.75 1016.17 1015.51 1014.91 1014.31 1013.71 1012.96 1012.03 1011.29 1010.85 1010.13 1009.56 1009.17 1008.65 1007.84 1006.99 1006.25 1006.11 1005.84 1005.65
1014.15 1014.09 1013.93 1013.82 1013.93 1014.51 1015.53 1015.53 1015.39 1015.80 1016.07 1016.91 1017.54 1017.63 1017.87 1017.98 1018.15 1018.29 1018.25 1018.53 1018.72 1018.79 1018.77 1018.73 1018.82 1018.93 1018.91 1018.91 1018.70 1018.55 1018.45 1018.08 1017.64 1017.50 1017.27 1016.73 1016.16 1015.75 1015.13 1014.41 1013.78 1013.17 1012.38 1011.53 1010.91 1010.33 1009.88 1009.57 1008.95 1008.39 1008.11 1007.76 1007.39 1007.68
1014.23 1014.13 1014.02 1014.17 1014.39 1014.82 1015.04 1015.15 1015.44 1015.72 1016.31 1016.79 1016.99 1017.44 1017.84 1018.11 1018.32 1018.39 1018.40 1018.46 1018.55 1018.72 1018.74 1018.88 1018.81 1018.66 1018.74 1018.85 1018.93 1019.07 1019.05 1018.61 1018.21 1017.99 1017.91 1017.28 1016.65 1016.06 1015.50 1014.87 1014.33 1013.90 1013.54 1012.70 1011.81 1011.12 1010.66 1010.31 1010.10 1009.70 1009.51 1009.37 1009.41 1009.35
1014.59 1014.94 1014.63 1014.73 1014.70 1014.58 1014.70 1014.86 1015.16 1015.43 1015.92 1016.37 1016.77 1017.49 1017.85 1018.01 1018.18 1018.33 1018.36 1018.40 1018.54 1018.57 1018.69 1018.81 1018.93 1019.04 1018.96 1019.09 1019.19 1019.31 1019.48 1019.19 1018.79 1018.46 1018.48 1018.12 1017.52 1016.76 1016.14 1015.53 1014.95 1014.63 1014.31 1013.45 1012.77 1011.96 1011.63 1011.29 1010.97 1010.84 1010.63 1010.57 1010.62 1010.50
1014.53 1014.86 1014.85 1014.77 1014.81 1014.67 1014.75 1014.77 1015.03 1015.39 1015.77 1016.33 1017.02 1017.65 1017.87 1017.87 1017.95 1018.09 1018.29 1018.39 1018.36 1018.48 1018.45 1018.59 1018.69 1018.93 1019.31 1019.61 1019.58 1019.66 1019.70 1019.59 1019.19 1018.96 1018.93 1018.69 1018.33 1017.85 1017.16 1016.41 1015.72 1015.17 1015.35 1014.54 1013.71 1012.97 1012.60 1012.39 1012.10 1011.85 1011.67 1011.57 1011.55 1011.11
1014.46 1014.50 1014.73 1014.95 1014.71 1014.77 1014.73 1014.89 1015.13 1015.25 1015.63 1016.13 1016.73 1017.25 1017.44 1017.40 1017.48 1017.89 1018.11 1018.29 1018.32 1018.53 1018.72 1018.85 1018.90 1019.07 1019.43 1019.75 1020.00 1020.11 1020.01 1019.80 1019.66 1019.61 1019.43 1019.11 1018.86 1018.65 1018.25 1017.69 1017.17 1016.95 1016.18 1015.29 1014.67 1014.23 1013.80 1013.41 1013.12 1012.91 1012.72 1012.62 1012.40 1012.19
1013.93 1014.05 1014.16 1014.37 1014.40 1014.62 1014.48 1014.59 1014.75 1015.00 1015.50 1016.27 1016.67 1016.73 1016.79 1016.76 1017.12 1017.37 1017.58 1018.02 1018.30 1018.61 1018.83 1019.07 1019.26 1019.45 1019.74 1020.07 1020.16 1020.11 1020.05 1019.88 1019.70 1019.62 1019.42 1019.20 1019.00 1018.83 1018.57 1018.05 1017.70 1017.34 1016.77 1016.63 1015.93 1015.40 1014.96 1014.62 1014.29 1013.97 1013.70 1013.55 1013.39 1013.08
1013.73 1013.79 1013.99 1013.98 1014.12 1014.29 1014.31 1014.42 1014.63 1015.08 1015.58 1015.90 1016.07 1016.34 1016.61 1016.83 1017.03 1017.19 1017.57 1017.93 1018.45 1018.68 1018.93 1019.35 1019.75 1019.93 1020.20 1020.45 1020.54 1020.51 1020.44 1020.26 1019.90 1019.71 1019.54 1019.41 1019.27 1019.21 1019.09 1018.56 1018.09 1017.73 1017.31 1016.82 1016.69 1016.55 1016.21 1015.83 1015.41 1014.92 1014.61 1014.23 1013.96 1013.77
1013.52 1013.68 1013.57 1013.77 1013.95 1013.97 1014.28 1014.59 1014.82 1015.33 1015.75 1016.05 1016.31 1016.70 1016.96 1017.33 1017.80 1018.19 1018.33 1018.39 1018.41 1018.53 1018.72 1019.07 1019.73 1019.85 1019.95 1020.02 1020.22 1020.41 1020.66 1020.73 1020.70 1020.55 1020.29 1020.15 1020.13 1019.97 1019.56 1019.14 1018.72 1018.29 1017.93 1017.51 1017.11 1016.73 1016.57 1016.09 1015.79 1015.41 1015.14 1014.81 1014.45 1014.05
1013.41 1013.43 1013.45 1013.63 1013.90 1014.44 1014.84 1015.18 1015.47 1015.62 1015.78 1016.16 1016.43 1016.48 1016.93 1017.56 1018.39 1018.79 1018.97 1019.08 1019.18 1018.89 1018.98 1019.39 1019.85 1019.99 1019.83 1019.90 1020.09 1020.26 1020.43 1020.91 1021.10 1021.12 1021.10 1020.77 1020.50 1020.26 1019.99 1019.64 1019.23 1018.81 1018.43 1018.11 1017.78 1017.42 1017.05 1016.62 1016.25 1015.90 1015.63 1015.40 1015.22 1014.92
1013.10 1013.04 1013.19 1013.51 1014.18 1014.89 1015.12 1015.14 1015.36 1015.56 1015.84 1016.08 1016.55 1016.86 1017.27 1017.52 1018.57 1019.72 1020.42 1020.30 1020.29 1019.81 1019.89 1019.68 1019.67 1019.97 1020.25 1020.47 1020.72 1020.93 1021.28 1021.21 1021.29 1021.37 1021.36 1021.12 1020.83 1020.52 1020.06 1019.72 1019.41 1019.08 1018.68 1018.30 1018.01 1017.71 1017.41 1017.06 1016.71 1016.47 1016.16 1015.94 1015.74 1015.52
1012.77 1012.91 1013.22 1013.62 1014.15 1014.54 1014.82 1014.99 1015.21 1015.56 1015.94 1016.13 1016.50 1016.95 1017.41 1017.99 1019.33 1020.32 1020.39 1020.52 1020.32 1020.03 1019.87 1020.07 1020.39 1020.72 1020.95 1021.03 1021.25 1021.43 1021.46 1021.48 1021.79 1021.98 1021.79 1021.66 1021.57 1021.03 1019.97 1019.62 1019.55 1019.24 1018.84 1018.50 1018.17 1017.87 1017.63 1017.42 1017.13 1016.89 1016.60 1016.33 1016.03 1015.73
Thickness
5572 5568 5565 5560 5556 5551 5546 5539 5533 5528 5520 5512 5502 5492 5481 5471 5461 5450 5441 5430 5422 5419 5427 5427 5427 5427 5430 5432 5437 5456 5476 5484 5495 5511 5524 5536 5552 5567 5586 5595 5611 5636 5651 5664 5670 5690 5683 5688 5704 5713 5696 5710 5723 5739
5572 5570 5567 5563 5558 5554 5549 5544 5538 5532 5525 5518 5509 5500 5490 5479 5468 5456 5446 5434 5424 5418 5429 5426 5429 5429 5432 5437 5438 5447 5455 5459 5478 5495 5506 5524 5539 5553 5566 5591 5601 5617 5625 5645 5650 5654 5662 5676 5680 5685 5693 5704 5717 5732
5573 5571 5569 5565 5561 5557 5552 5547 5542 5536 5530 5523 5516 5508 5499 5489 5476 5463 5453 5438 5426 5422 5432 5433 5440 5434 5432 5436 5437 5444 5456 5456 5468 5470 5492 5508 5524 5535 5552 5568 5585 5603 5613 5636 5644 5646 5656 5667 5675 5681 5689 5699 5713 5730
5575 5572 5570 5567 5564 5560 5556 5551 5545 5540 5534 5528 5522 5514 5506 5496 5484 5471 5458 5446 5437 5426 5424 5446 5438 5439 5437 5438 5439 5445 5450 5450 5457 5469 5489 5503 5516 5522 5539 5550 5565 5592 5606 5620 5629 5641 5657 5663 5669 5676 5686 5698 5710 5723
5576 5574 5572 5569 5566 5562 5557 5553 5548 5543 5537 5532 5527 5519 5511 5501 5491 5478 5466 5453 5444 5434 5432 5440 5447 5441 5436 5436 5441 5444 5447 5449 5461 5479 5489 5502 5508 5519 5533 5545 5565 5586 5598 5612 5619 5626 5638 5652 5661 5673 5682 5694 5707 5717
5578 5575 5574 5571 5568 5564 5559 5554 5550 5546 5541 5535 5531 5524 5516 5507 5498 5487 5474 5460 5450 5441 5433 5442 5450 5446 5442 5438 5438 5441 5445 5449 5460 5474 5490 5495 5497 5513 5530 5547 5574 5587 5595 5606 5606 5618 5630 5644 5658 5670 5677 5690 5702 5713
5579 5577 5576 5575 5571 5567 5563 5557 5552 5548 5544 5538 5533 5527 5522 5514 5503 5493 5482 5471 5458 5447 5441 5444 5454 5456 5450 5446 5441 5440 5443 5454 5463 5477 5485 5495 5504 5508 5525 5549 5582 5585 5588 5594 5603 5613 5628 5640 5652 5664 5673 5686 5697 5709
5580 5578 5577 5577 5574 5570 5565 5560 5556 5552 5548 5542 5535 5529 5526 5520 5512 5502 5490 5477 5466 5457 5449 5447 5459 5459 5451 5452 5453 5449 5457 5457 5467 5480 5481 5492 5500 5510 5534 5568 5559 5565 5575 5583 5593 5606 5621 5635 5646 5658 5669 5680 5690 5702
5581 5581 5581 5579 5576 5573 5568 5564 5559 5555 5551 5546 5538 5531 5527 5524 5517 5509 5499 5487 5476 5466 5461 5459 5459 5462 5453 5456 5457 5458 5455 5467 5468 5481 5486 5492 5505 5519 5540 5539 5545 5549 5560 5573 5584 5599 5613 5624 5637 5650 5661 5671 5682 5693
5583 5583 5582 5582 5579 5576 5572 5568 5563 5558 5554 5548 5541 5539 5535 5526 5520 5513 5502 5496 5485 5476 5468 5470 5461 5466 5454 5453 5463 5464 5467 5468 5473 5473 5479 5499 5513 5524 5530 5541 5552 5558 5567 5577 5584 5595 5606 5616 5628 5642 5654 5662 5670 5680
5585 5584 5585 5585 5582 5579 5576 5572 5568 5562 5556 5551 5549 5542 5533 5529 5523 5515 5507 5505 5495 5491 5478 5480 5475 5474 5471 5469 5469 5469 5472 5472 5482 5483 5482 5491 5497 5505 5514 5524 5538 5552 5564 5573 5585 5596 5604 5614 5624 5636 5647 5656 5663 5670
5586 5587 5586 5586 5584 5581 5578 5575 5571 5567 5562 5556 5550 5543 5537 5534 5529 5527 5518 5504 5502 5508 5497 5494 5492 5485 5484 5478 5475 5481 5480 5476 5495 5477 5483 5496 5500 5511 5518 5529 5537 5547 5558 5571 5579 5592 5600 5608 5616 5626 5638 5650 5660 5665
5589 5589 5589 5589 5587 5584 5581 5577 5572 5568 5563 5558 5555 5555 5552 5552 5551 5539 5535 5527 5521 5511 5509 5509 5509 5499 5495 5489 5487 5485 5482 5490 5475 5489 5495 5493 5507 5516 5524 5534 5543 5550 5554 5558 5570 5580 5590 5599 5606 5614 5625 5638 5648 5659
5591 5591 5591 5591 5589 5586 5583 5579 5574 5568 5565 5572 5574 5557 5565 5557 5554 5548 5544 5544 5541 5532 5522 5519 5519 5514 5510 5502 5491 5490 5488 5475 5495 5501 5495 5497 5502 5504 5512 5523 5533 5543 5547 5551 5559 5569 5579 5587 5595 5603 5613 5621 5632 5647
5592 5594 5594 5592 5590 5588 5585 5581 5573 5569 5572 5576 5575 5557 5560 5555 5551 5551 5549 5548 5541 5534 5526 5529 5527 5520 5514 5506 5493 5491 5508 5504 5489 5489 5491 5494 5498 5501 5508 5511 5517 5528 5536 5540 5547 5553 5559 5567 5577 5587 5596 5603 5616 5630
5593 5595 5592 5589 5588 5587 5583 5575 5571 5570 5574 5573 5567 5563 5560 5558 5558 5557 5555 5554 5542 5538 5534 5532 5535 5541 5540 5536 5525 5517 5503 5509 5504 5505 5504 5502 5502 5504 5505 5508 5511 5515 5523 5528 5538 5548 5551 5551 5557 5565 5575 5591 5602 5612
5593 5595 5590 5587 5584 5581 5576 5574 5574 5576 5574 5570 5561 5552 5550 5549 5550 5550 5551 5550 5540 5545 5553 5549 5543 5533 5541 5533 5521 5516 5511 5503 5501 5502 5501 5498 5500 5504 5505 5507 5510 5509 5514 5518 5521 5532 5544 5548 5550 5554 5562 5573 5589 5606
5593 5593 5589 5584 5580 5577 5576 5573 5576 5574 5566 5555 5555 5546 5544 5540 5543 5547 5545 5546 5548 5550 5547 5537 5535 5524 5516 5508 5501 5495 5494 5496 5500 5497 5496 5496 5498 5501 5505 5507 5508 5508 5507 5506 5509 5517 5522 5531 5539 5543 5555 5563 5572 5583
5589 5589 5589 5582 5576 5575 5581 5575 5570 5563 5549 5544 5538 5536 5532 5531 5529 5530 5535 5538 5537 5536 5535 5521 5513 5498 5497 5499 5493 5492 5490 5488 5492 5493 5494 5494 5493 5493 5498 5502 5505 5506 5506 5504 5505 5511 5517 5519 5524 5529 5537 5544 5551 5558
5594 5592 5589 5583 5576 5579 5577 5568 5561 5558 5546 5534 5528 5519 5517 5513 5519 5524 5525 5526 5526 5524 5513 5503 5498 5495 5493 5492 5487 5486 5484 5481 5484 5491 5490 5490 5488 5490 5494 5496 5497 5500 5506 5505 5502 5504 5512 5518 5523 5529 5532 5535 5540 5546
5595 5590 5586 5581 5579 5577 5569 5559 5554 5545 5535 5528 5521 5515 5512 5515 5513 5513 5508 5511 5511 5499 5498 5493 5490 5489 5486 5484 5479 5479 5478 5476 5475 5473 5471 5479 5481 5484 5484 5486 5490 5495 5498 5500 5499 5501 5502 5507 5511 5522 5527 5526 5532 5538
5594 5589 5586 5580 5578 5571 5562 5550 5549 5539 5535 5526 5521 5516 5513 5509 5508 5506 5505 5502 5498 5493 5491 5488 5485 5483 5480 5474 5470 5468 5466 5466 5464 5466 5463 5465 5468 5470 5471 5473 5477 5484 5489 5490 5493 5497 5497 5496 5499 5506 5512 5513 5516 5517
5593 5589 5587 5582 5576 5559 5550 5547 5548 5539 5537 5525 5515 5516 5512 5508 5504 5499 5500 5496 5491 5488 5485 5483 5478 5473 5469 5465 5465 5462 5458 5458 5459 5455 5451 5454 5457 5456 5458 5461 5464 5466 5471 5477 5482 5486 5488 5486 5489 5495 5498 5499 5502 5497
5590 5588 5583 5576 5568 5553 5555 5551 5543 5539 5531 5525 5524 5519 5512 5505 5501 5500 5496 5495 5491 5486 5482 5476 5474 5472 5468 5462 5458 5453 5448 5449 5449 5446 5441 5442 5444 5446 5448 5451 5453 5454 5454 5461 5467 5472 5476 5477 5474 5478 5483 5483 5481 5481
5585 5577 5575 5553 5565 5563 5558 5553 5546 5542 5535 5529 5527 5517 5511 5506 5503 5498 5495 5492 5486 5483 5477 5472 5468 5463 5462 5457 5452 5447 5439 5438 5437 5436 5430 5429 5429 5432 5433 5435 5439 5439 5438 5443 5448 5456 5457 5460 5462 5462 5465 5466 5467 5468
5576 5578 5570 5571 5564 5562 5556 5552 5546 5540 5535 5527 5517 5507 5505 5504 5501 5497 5492 5488 5484 5478 5475 5471 5466 5459 5450 5443 5439 5434 5428 5424 5425 5422 5417 5415 5413 5412 5414 5417 5418 5420 5415 5421 5428 5433 5435 5437 5439 5442 5444 5445 5445 5453
5579 5581 5573 5565 5564 5559 5556 5550 5544 5541 5534 5527 5519 5511 5508 5506 5502 5495 5487 5480 5478 5472 5466 5460 5456 5451 5443 5434 5425 5419 5415 5412 5408 5404 5401 5398 5395 5392 5391 5392 5392 5391 5394 5399 5403 5406 5410 5413 5416 5417 5419 5422 5424 5427
5589 5582 5580 5573 5567 5559 5557 5553 5548 5543 5535 5524 5518 5516 5512 5509 5502 5496 5490 5480 5472 5465 5458 5452 5446 5440 5432 5423 5416 5410 5404 5399 5394 5388 5383 5379 5376 5374 5373 5374 5374 5373 5376 5374 5378 5382 5384 5387 5390 5394 5396 5397 5399 5404
5588 5583 5578 5574 5567 5562 5558 5555 5550 5542 5533 5527 5524 5517 5511 5504 5498 5493 5484 5475 5465 5458 5452 5444 5435 5427 5418 5410 5403 5396 5390 5385 5381 5375 5370 5366 5362 5357 5354 5354 5354 5355 5356 5358 5356 5356 5359 5362 5366 5371 5374 5379 5381 5383
5589 5583 5580 5574 5569 5566 5561 5553 5547 5536 5529 5524 5517 5509 5504 5497 5487 5478 5473 5467 5461 5455 5448 5439 5425 5419 5413 5406 5396 5387 5377 5370 5363 5358 5353 5348 5342 5339 5339 5338 5338 5339 5339 5341 5343 5344 5344 5348 5350 5354 5357 5361 5365 5371
5585 5582 5579 5574 5570 5560 5552 5544 5538 5533 5529 5521 5513 5511 5503 5493 5479 5469 5464 5458 5449 5443 5438 5429 5418 5411 5407 5399 5390 5382 5373 5360 5351 5345 5339 5336 5332 5329 5326 5326 5326 5327 5327 5327 5328 5330 5332 5335 5338 5341 5344 5346 5348 5351
5585 5584 5580 5573 5564 5552 5548 5545 5539 5533 5527 5522 5513 5504 5497 5491 5475 5460 5447 5442 5434 5434 5424 5422 5416 5406 5395 5386 5377 5368 5356 5352 5345 5340 5335 5332 5329 5326 5324 5322 5321 5321 5322 5323 5323 5324 5325 5327 5329 5331 5333 5336 5338 5340
5585 5582 5575 5567 5558 5553 5549 5545 5539 5531 5524 5519 5512 5503 5493 5484 5461 5448 5442 5436 5433 5429 5423 5413 5403 5393 5385 5378 5369 5360 5353 5347 5341 5336 5332 5329 5325 5324 5325 5324 5322 5322 5322 5322 5323 5324 5324 5325 5327 5328 5330 5332 5334 5337